sat.trackr.live / text

‹ back to catalog

STARLINK-3315

NORAD 50848 · 2022-001AX

PAYLOAD ACTIVE UNKNOWN

§ Identity

Operator
Country
US
Launch date
2022-01-06
Launch site
AFETR
Launch vehicle
Mass (kg)
RCS (m²)

Purposes: comms

External: N2YO · Heavens-Above · Gunter

§ Orbital elements

Epoch: 2026-05-25T03:57:29.869920Z

Period
95.44 min
Inclination
53.2128°
Eccentricity
0.0001217
Mean motion
15.08837607 rev/d
Perigee alt
538.9 km
Apogee alt
540.6 km
Semi-major
6,917.9 km
B*
-2.7521e-5
RAAN
195.8117°
Arg perigee
84.7116°
Mean anomaly
275.4015°
Rev number
24,181

§ Raw data

STARLINK-33151 50848U 22001AX  26145.16492905 -.00000726  00000+0 -27521-4 0  99912 50848  53.2128 195.8117 0001217  84.7116 275.4015 15.08837607241813

JSON: /api/v1/satellites/50848 · /tle

For live sub-satellite position, see the globe view (requires WebGL).

§ Visibility from observer

Set your observer location to see the next 7 days of passes ≥ 10°. The values pass through the URL so the page stays shareable.

No JS? Fill the form by hand. The geolocation button needs JavaScript.